{"data":{"norad_id":46053,"epoch":"2026-09-19T13:56:10.030560Z","epoch_age_seconds":97620,"freshness":"FRESH","line1":"1 46053U 20055AC  26262.58067165  .00001835  00000+0  70844-4 0  9999","line2":"2 46053  53.1611 291.6879 0001469  77.6513 282.4653 15.31717420338788","mean_motion":15.3171742,"eccentricity":0.0001469,"inclination_deg":53.1611,"raan_deg":291.6879,"arg_perigee_deg":77.6513,"mean_anomaly_deg":282.4653,"bstar":7.0844e-5,"rev_number":33878,"period_min":94.012118762741,"perigee_km":469.68197520182,"apogee_km":471.69416000669,"semimajor_km":6848.8250676043,"source":"CELESTRAK","updated_at":"2026-09-20T09:00:38.462354Z"}}